Weather in Verkhobystritsa

Russia / Kirov Oblast     58°04′52″N   50°21′50″E
temp.,
°C
wind,
m/s
gust,
m/s
humid.,
%
clouds,
%
prec.,
mm/h
press.,
hPa
HPBL,
m
30 november, tue
tue3000:00+1se715100100 3.6 1006584
03:00+1sse61499100 8.1 1003612
06:00+1sse71599100 0.7 1000575
09:00+1se112398100 5.3 994693
12:00+1sse102099100 5.1 992896
15:000sse91898100 9.8 988791
18:00+1s81798100 4.2 986656
21:00+2s91810095 4.3 986670
1 december, wed
wed100:00+2ssw101786100 0.1 987873
03:00+1ssw101882100 0.3 9871293
06:000ssw9168292 0.1 9891031
09:00−1ssw71387100 0.1 990794
12:00−1s4891100 0.1 990557
15:00−2sse2596100 0.1 989105
18:00−2ssw1198100 0.1 98832
21:00−2wnw4793100 1.2 988383
2 december, thu
thu200:00−4wsw389491 0.0 989299
03:00−4wsw4994100 0.0 991389
06:00−5sw5109384 0.0 993408
09:00−5ssw5109579 0.1 995430
12:00−4sw5109187 0.1 997622
15:00−7sw379354 0.1 998143
18:00−7sw499571 0.0 1000250
21:00−7wsw51091100 0.0 1001390
3 december, fri
fri300:00−7wsw51091100 0.0 1003471
03:00−7sw499294 0.0 1003449
06:00−7sw379490 0.0 1004205
09:00−6ssw379688 0.2 1005349
12:00−4s3896100 0.3 1005390
15:00−4ssw499794 0.7 1006336
18:00−3sw41097100 0.2 1008272
21:00−1sw4994100 0.3 1010329
4 december, sat
sat400:00−2sw4995100 0.0 1011274
03:00−2sse4997100 0.0 1011273
06:000sse71698100 0.8 1007540
09:00+1s91899100 0.8 1005710
12:00+1ssw91999100 0.7 1003795
15:00+1sw91698100 2.3 1005914
18:00−1wsw71286100 0.1 1009706
21:00−3wsw4888100 0.1 1012285